Tracking 19570 objects as of 22-Feb-2019
HD Live streaming from Space Station
objects crossing your sky now

THORAD DELTA 1 DEB

Track THORAD DELTA 1 DEB now!
10-day predictions


NORAD ID: 8789
Int'l Code: 1974-089DR
Perigee: 1,435.4 km
Apogee: 1,601.6 km
Inclination: 101.8 °
Period: 116.2 minutes
Semi major axis: 7889 km
RCS: 0.0362 m2 (small)
Launch date: November 15, 1974
Source: United States (US)
Launch site: AIR FORCE WESTERN TEST RANGE (AFWTR)

Note: This is SATELLITE DEBRIS
aabbcc
Your satellite tracking list
Your tracking list is empty




NASA's NSSDC Master Catalog

Two Line Element Set (TLE):
1  8789U 74089DR  19051.82704003 -.00000055  00000-0 -91269-4 0  9993
2  8789 101.7742  17.6816 0105343 179.3787 211.7050 12.38882426  1587
Source of the keplerian elements: AFSPC